Location: Blue Sky Observatory
(43.1153°N, 70.9036°W)
Time: 12:21:24
(UTC-04:00)

Daily predictions for brighter satellites

Satellite Brightness Start Highest point End
(mag) Time Altitude Azimuth Time Altitude Azimuth Time Altitude Azimuth
NOAA 12 4.3 19:17:55 10° SSE 19:23:14 86° WSW 19:28:35 10° NNW
Cosmos 405 2.9 19:30:25 10° S 19:33:55 76° E 19:37:27 10° NNE
FREGAT/IRIS 2.9 19:32:04 10° S 19:35:08 74° WSW 19:38:12 10° NNW
CZ-2D R/B 4.0 19:34:15 10° SE 19:37:42 32° ENE 19:41:11 10° N
Helios 1B rocket 3.8 19:36:14 10° NE 19:39:13 19° E 19:42:10 10° SE
Helios 1A 4.0 19:38:24 10° ESE 19:41:50 26° ENE 19:45:20 10° N
Cosmos 1437 Rocket 2.7 19:42:21 10° S 19:46:19 73° E 19:50:24 10° NNE
SJ-6B 3.2 19:43:15 10° S 19:46:58 62° W 19:50:41 10° NNW
H-2A R/B 4.5 19:43:21 10° SSW 19:48:19 28° SE 20:04:20 13° E
Lacrosse 4 Rocket 1.3 19:45:37 10° SSW 19:49:40 86° ESE 19:53:45 10° NNE
Resurs 1-3 3.6 19:48:18 10° SSE 19:52:36 59° ENE 19:56:56 10° N
In-Cosmos 22 4.3 19:52:06 10° N 19:57:18 49° ENE 20:02:24 10° SSE
USA 215 3.7 19:51:59 10° ENE 19:58:00 38° SE 20:03:58 10° SSW
Cosmos 1844 Rocket 2.9 19:53:45 10° SSW 19:59:23 76° WNW 20:05:03 10° NNE
Spot 2 Rocket 3.5 19:54:47 10° SSE 19:59:53 79° ENE 20:05:01 10° NNW
Cosmos 2150 Rocket 4.0 19:56:40 10° SSW 20:01:49 87° WNW 20:07:01 10° NNE
Cosmos 1758 4.0 20:03:24 10° SSE 20:06:54 30° E 20:10:26 10° NNE
Cosmos 1833 Rocket 3.7 20:03:26 10° N 20:08:12 27° NE 20:10:56 19° E
Cosmos 2278 Rocket 2.2 20:03:03 10° S 20:08:35 56° ESE 20:14:08 10° NNE
Cosmos 1934 Rocket 4.0 20:06:21 10° S 20:12:31 90° W 20:18:38 10° N
Cosmos 1378 4.1 20:08:57 10° NNW 20:12:37 51° W 20:16:15 10° S
SAR-Lupe-4 3.5 20:10:59 13° SSE 20:14:02 60° ENE 20:17:35 10° N
Cosmos 1898 Rocket 4.4 20:09:46 10° SW 20:14:58 53° WNW 20:20:09 10° NNE
Cosmos 1939 Rocket 3.8 20:13:32 24° ESE 20:14:59 30° ENE 20:18:37 10° N
Cosmos 990 Rocket 4.0 20:10:42 10° SSW 20:15:58 87° WNW 20:21:15 10° NNE
Tiangong 1 1.5 20:13:35 10° W 20:16:25 46° SSW 20:17:22 31° SE
Cosmos 1953 2.8 20:13:28 10° SSE 20:17:14 37° E 20:21:01 10° NNE
Okean 3 Rocket 3.5 20:13:13 10° N 20:17:36 65° E 20:21:58 10° SSE
Envisat 3.4 20:14:18 17° SE 20:17:49 43° ENE 20:22:37 10° N
Cosmos 2297 4.3 20:15:57 10° SSE 20:20:57 33° ESE 20:26:00 10° NE
Meteor 1-24 Rocket 4.1 20:16:45 10° NNW 20:22:09 65° W 20:27:43 10° S
H-2A R/B 3.7 20:18:53 10° S 20:22:38 50° W 20:26:29 10° NNW
Cosmos 1125 Rocket 3.9 20:18:43 10° SSE 20:23:28 38° ESE 20:28:15 10° NE
USA 186 0.8 20:24:57 66° S 20:25:11 82° WSW 20:27:27 10° NNW
Abrixas 2.9 20:23:43 10° WNW 20:26:28 43° NNE 20:26:54 40° NE
Cosmos 1048 Rocket 4.4 20:22:03 10° N 20:26:54 41° ENE 20:28:51 29° ESE
Geosat 4.1 20:26:25 10° NNE 20:31:28 79° WNW 20:36:29 10° SSW
USA 267 4.1 20:27:21 18° ENE 20:31:29 38° NNE 20:37:23 10° NW
SAR-Lupe-1 4.0 20:31:15 22° SSE 20:33:28 88° WSW 20:37:04 10° NNW
Cosmos 2082 Rocket 2.5 20:32:06 10° NNW 20:37:38 49° ENE 20:39:45 33° ESE
ALOS 4.4 20:33:44 10° SSW 20:37:41 27° W 20:41:41 10° NW
Lacrosse 5 rocket 2.9 20:35:39 10° NNW 20:38:40 20° NNE 20:39:27 19° NE
GP-B 3.0 20:37:25 21° SSE 20:40:18 67° E 20:44:43 10° N
Resurs 01 Rocket 3.2 20:37:09 10° SSW 20:41:11 35° W 20:45:16 10° NNW
Meteor 1-4 Rocket 2.3 20:40:40 43° SSE 20:41:40 71° E 20:45:08 10° NNE
CZ-4B DEB 2.6 20:41:48 68° S 20:42:09 87° WSW 20:45:17 10° NNW
CZ-3B DEB 2.9 20:31:33 10° WSW 20:42:13 70° NW 20:46:35 13° NE
Cosmos 1818 3.5 20:37:46 10° NNW 20:43:14 68° NE 20:45:20 37° SE
RESURS DK-1 3.3 20:39:21 10° NW 20:43:18 45° WSW 20:46:08 17° S
Cosmos 1544 3.1 20:39:47 10° SSW 20:43:25 78° W 20:47:06 10° N
ERS-1 Rocket 3.4 20:43:31 37° E 20:44:34 42° ENE 20:49:19 10° N
SL-27 R/B 4.3 20:44:20 10° NW 20:47:30 30° WSW 20:50:29 11° SSW
BREEZE-M DEB (TANK) 3.7 20:45:32 10° SSW 20:49:05 45° SE 21:00:13 10° ENE
Cosmos 2100 Rocket 4.1 20:44:06 14° SSE 20:49:24 53° E 20:55:34 10° NNE
Cosmos 1605 Rocket 4.3 20:44:04 10° SSW 20:50:16 67° W 20:56:37 10° N
Meteor 1-29 3.0 20:46:49 10° N 20:50:17 79° WNW 20:52:31 21° SSW
Timation 1 Rocket 4.2 20:44:44 10° SSW 20:50:42 69° ESE 20:56:42 10° NNE
Cosmos 1271 Rocket 4.4 20:53:13 22° NE 20:53:13 22° NE 20:54:51 10° NNE
COSMOS 2487 3.1 20:47:55 10° N 20:50:47 43° NNE 20:50:47 43° NNE
Lacrosse 5 2.0 20:48:57 10° SW 20:54:01 76° NW 20:58:10 16° NE
Cosmos 1766 Rocket 3.4 20:52:24 10° N 20:56:55 80° E 20:57:56 53° SSE
Cosmos 1076 Rocket 3.6 20:53:46 10° NNW 20:58:01 70° W 20:59:48 33° S
SPOT 5 3.9 20:58:37 33° ENE 20:58:37 33° ENE 21:03:14 10° N
Cosmos 1269 Rocket 3.9 20:53:14 10° NNW 20:58:34 78° ENE 21:00:06 47° SSE
Cosmos 2098 Rocket 4.4 20:54:28 10° S 21:01:30 83° W 21:09:11 10° N
Meteor 1-21 Rocket 4.3 20:56:11 10° NNW 21:02:00 80° W 21:05:51 23° S
ARGOS 4.0 21:06:43 33° ENE 21:06:43 33° ENE 21:11:05 10° N
Cosmos 1802 Rocket 3.9 21:05:09 44° SE 21:06:44 57° E 21:12:45 10° NNE
MetOp-A 4.3 21:11:56 52° ENE 21:11:58 52° ENE 21:17:09 10° N
Cosmos 2344 4.3 21:07:06 10° WSW 21:14:37 55° NW 21:23:25 10° NNE
Helios 1B rocket 3.9 21:10:49 10° N 21:14:38 37° WNW 21:18:26 10° SW
Cosmos 2061 Rocket 3.9 21:11:25 31° S 21:14:40 72° E 21:21:05 10° NNE
Timation 2 Rocket 3.8 21:12:03 10° NNW 21:18:27 83° ENE 21:19:44 59° SE
Cosmos 1867 3.4 21:13:23 10° SSW 21:18:49 78° ESE 21:24:18 10° NE
Cosmos 1674 3.3 21:15:12 10° NNW 21:18:33 53° WNW 21:18:33 53° WNW
Cosmos-2242 3.2 21:22:00 65° NNW 21:22:00 65° NNW 21:25:49 10° N
Cosmos 1340 Rocket 3.8 21:24:19 10° NNW 21:27:12 44° NNW 21:27:12 44° NNW
Cosmos 1743 Rocket 4.2 21:24:29 10° N 21:27:44 48° N 21:27:44 48° N
Terra 4.1 21:34:10 14° NNE 21:34:10 14° NNE 21:35:12 10° NNE
Cosmos 1470 4.2 21:33:42 35° NNW 21:33:42 35° NNW 21:36:13 10° N
Cosmos 372 Rocket 4.2 21:30:15 10° SSW 21:35:19 67° WNW 21:40:28 10° NNE
USA 215 3.5 21:34:45 10° NE 21:41:14 67° NW 21:47:41 10° WSW
H-2A R/B 3.2 21:45:55 34° NNE 21:45:55 34° NNE 21:49:14 10° N
Cosmos 1459 Rocket 4.5 21:45:22 20° SSW 21:49:45 58° W 21:55:52 10° N
NOAA 11 4.3 21:51:35 71° NW 21:51:35 71° NW 21:56:33 10° NNW
Cosmos 2173 Rocket 4.5 21:48:08 24° SSW 21:51:48 57° WNW 21:57:58 10° N
Cosmos 1833 Rocket 3.3 21:46:58 10° NW 21:52:21 49° WSW 21:52:40 48° WSW
Cosmos 2278 Rocket 4.3 21:48:25 10° WSW 21:53:02 25° NW 21:57:40 10° N
CZ-3 Stage 3 4.0 21:34:52 10° W 21:53:49 36° SSW 21:54:42 35° SSW
USA 267 3.3 22:14:41 76° NW 22:14:41 76° NW 22:20:39 10° NW
Lacrosse 5 rocket 4.2 22:14:28 10° NW 22:15:09 15° NW 22:15:09 15° NW
Cosmos 2082 Rocket 3.9 22:16:48 10° NW 22:21:22 25° WSW 22:21:38 25° WSW
Lacrosse 5 4.0 22:33:40 10° WNW 22:37:28 23° NNW 22:37:28 23° NNW
CZ-3B DEB 4.4 22:51:13 10° WNW 22:54:17 17° NW 22:54:17 17° NW
